STARLINK-4191, 52860

Orbit data source: Space-Track

STARLINK-4191, 52860 is a payload satellite owned by SpaceX/Seattle (US) in LEO that was launched on Fri, 17 Jun 2022 UTC via an FALCON 9 launch vehicle from the Air Force Eastern Test Range (AFETR). Payload-class satellites include a variety of spacecraft equipped with specific instruments for various scientific and technological missions. These include communications satellites like Starlink; space stations such as the ISS; scientific satellites like the Hubble; Earth observation satellites from companies like Planet Labs, Umbra, and HawkEye 360; GPS; miniature CubeSats for education and research; and military/defense satellites.

Loading next visibility...
Identifier
52860, 2022-062AG
Orbit
LEO
Country
Flag of USUS
Related business
Manufacturer
SpaceX/Seattle
Mission
Operational Commercial Communications
Bus & Motor
STARLINK, Unknown motor
Mass
297 kg wet, ~275 kg dry
Launch date (UTC)
2022-06-17 (3 years ago)
Launch vehicle
FALCON 9
Launch site
Air Force Eastern Test Range (AFETR)
Object type
Payload
Rocket body
Debris
Shape & HBR
Box + 1 Pan, 10.1 m
Radar Cross Section
13.562 m², Large (>1 m²)

Expand to show TLE details & history
Last TLE update: 17 hours ago

TLE from 17 hours ago
0 STARLINK-4191
1 52860U 22062AG  25349.36118341 -.00000528  00000-0 -15086-4 0  9994
2 52860  53.2182  42.6893 0001467  84.1755 275.9405 15.08842595193196
Epoch: 2025-12-15T08:40Z
TLE epoch observation values (Epoch: 2025-12-15T08:40:06.246Z)
Latitude
0.00002°
Longitude
-171.59756°
Altitude
540.528 km
Speed
7.593 km/s
True Right ascension
02h 50m 45s
True Declination
0° 00' 00"
Sunlit
Object was in full shadow at epoch
Visualization orbit readout
Latitude
Unknown
Longitude
Unknown
Altitude
Unknown
Speed
Unknown
Apparent Right ascension
Unknown
Apparent Declination
Unknown
Sunlit
N/A
Visualization observer readout
Local Sidereal Time
00:24:23
Azimuth
Unknown
Elevation
Unknown
Doppler factor
Unknown
Orbital elements
Apogee altitude
540.995 km
Perigee altitude
538.965 km
Semi-major axis
6,918.117 km
Eccentricity
0.00015
Inclination
53.2182°
RAAN
42.6893°
Arg. of periapsis
84.1755°
True anomaly
275.92378°
Mean anomaly
275.9405°
Eccentric anomaly
275.93214°
Mean motion
3.77191 °/min
Orbital period
95.44 mins
BSTAR
-0.000015086
Loading maneuver chart data...
Computing Atmospheric mass density...
Loading historical data...
Loading historical data...
Loading historical data...
Loading historical data...
Loading historical data...
Loading historical data...
Loading historical data...

Documentation

Showing up to 5 results
|